Biloxi, MS

7:55 PM CST on November 18, 2017 (GMT -0600)
Keesler Air Force Base

Weather History for KBIX - May, 2013

Change the Weather History Date:

Monday, May 6, 2013

  Actual Average Record
Temperature  
Mean Temperature 60 °F -  
Max Temperature 71 °F 80 °F 90 °F (1949)
Min Temperature 48 °F 64 °F 48 °F (2013)
Degree Days  
Heating Degree Days 6    
Growing Degree Days 10 (Base 50)    
Moisture  
Dew Point 49 °F    
Average Humidity 62    
Maximum Humidity 84    
Minimum Humidity 44    
Precipitation  
Precipitation 0.00 in - - ()
Sea Level Pressure  
Sea Level Pressure 29.99 in    
Wind  
Wind Speed 7 mph (West)    
Max Wind Speed 24 mph    
Max Gust Speed 32 mph    
Visibility 10 miles    
Events      
Averages and records for this station are not official NWS values.
T = Trace of Precipitation, MM = Missing Value Source: NWS Daily Summary

Daily Weather History Graph

Daily Weather History Graph

Search for Another Location

Airport or City:

Trip Planner

Search our weather history database for the weather conditions in past years. The results will help you decide how hot, cold, wet, or windy it might be!

Date:

Astronomy

May. 06, 2013 Rise Set
Actual Time 6:07 AM CDT 7:37 PM CDT
Civil Twilight 5:41 AM CDT 8:03 PM CDT
Nautical Twilight 5:11 AM CDT 8:33 PM CDT
Astronomical Twilight 4:39 AM CDT 9:06 PM CDT
Moon 3:56 AM CDT (5/6) 4:48 PM CDT (5/6)
Length of Visible Light 14h 21m
Length of Day
13h 29m
Waning Crescent, 11% of the Moon is Illuminated
May 6
Waning Crescent
May 9
New
May 17
First Quarter
May 24
Full
May 31
Last Quarter

Hourly Weather History & Observations

Time (CDT) Temp. Dew Point Humidity Pressure Visibility Wind Dir Wind Speed Gust Speed Precip Events Conditions
12:58 AM 53.4 °F 45.0 °F 73% 30.03 in 10.0 mi NW 5.8 mph - N/A   Clear
1:58 AM 51.8 °F 45.3 °F 79% 30.02 in 10.0 mi WNW 2.3 mph - N/A   Clear
2:58 AM 51.4 °F 46.0 °F 82% 30.01 in 10.0 mi West 3.5 mph - N/A   Clear
3:58 AM 48.7 °F 44.2 °F 84% 30.00 in 10.0 mi WNW 4.6 mph - N/A   Clear
4:58 AM 52.0 °F 45.1 °F 77% 30.00 in 10.0 mi West 4.6 mph - N/A   Clear
5:58 AM 51.3 °F 45.7 °F 81% 30.01 in 10.0 mi WNW 2.3 mph - N/A   Clear
6:58 AM 54.0 °F 44.8 °F 71% 30.03 in 10.0 mi West 4.6 mph - N/A   Overcast
7:58 AM 57.2 °F 45.5 °F 65% 30.04 in 10.0 mi Variable 4.6 mph - N/A   Overcast
8:58 AM 63.1 °F 46.0 °F 54% 30.04 in 10.0 mi Variable 6.9 mph - N/A   Clear
9:58 AM 67.3 °F 47.8 °F 50% 30.04 in 10.0 mi West 5.8 mph - N/A   Clear
10:58 AM 69.3 °F 47.5 °F 46% 30.03 in 10.0 mi West 5.8 mph - N/A   Clear
11:58 AM 70.7 °F 47.5 °F 44% 30.01 in 10.0 mi Variable 4.6 mph - N/A   Clear
12:58 PM 70.0 °F 51.1 °F 51% 29.99 in 10.0 mi WSW 18.4 mph 25.3 mph N/A   Clear
1:58 PM 69.8 °F 53.6 °F 56% 29.97 in 10.0 mi SW 23.0 mph 28.8 mph N/A   Partly Cloudy
2:58 PM 69.8 °F 50.5 °F 50% 29.95 in 10.0 mi SW 20.7 mph 29.9 mph N/A   Overcast
3:58 PM 71.2 °F 51.3 °F 49% 29.93 in 10.0 mi WSW 24.2 mph 32.2 mph N/A   Scattered Clouds
4:58 PM 69.8 °F 50.7 °F 51% 29.93 in 10.0 mi WSW 18.4 mph 24.2 mph N/A   Mostly Cloudy
5:58 PM 70.2 °F 50.9 °F 50% 29.93 in 10.0 mi WSW 9.2 mph 18.4 mph N/A   Overcast
6:58 PM 70.0 °F 50.0 °F 49% 29.94 in 10.0 mi West 5.8 mph - N/A   Overcast
7:58 PM 68.0 °F 50.7 °F 54% 29.95 in 10.0 mi Variable 3.5 mph - N/A   Scattered Clouds
8:58 PM 66.6 °F 52.5 °F 61% 29.97 in 10.0 mi West 3.5 mph - N/A   Mostly Cloudy
9:58 PM 65.3 °F 53.2 °F 65% 30.00 in 10.0 mi Calm Calm - N/A   Partly Cloudy
10:58 PM 64.6 °F 55.2 °F 72% 30.01 in 10.0 mi Calm Calm - N/A   Overcast
11:58 PM 63.0 °F 54.0 °F 72% 30.00 in 10.0 mi Calm Calm - N/A   Partly Cloudy